Dong Fang Chun — BRZL — position and weather

sailwx.info

Track history (hours):
 
Tides and Currents Weather Stations Pressure Air Temp Water Temp Dewpoint Dewpoint Depression Visibility Wind Speed Wind Dir Waves Ship Positions

Dong Fang Chun

Last reported at 2014-Jul-28 13:13 UTC. Time now 2014-Jul-28 16:30 UTC.
Position N 22°29' E 113°55'.

Length 23 m; draft 1.4 m.

Type: High speed craft. MMSI: 412461320.

Date/timePositionNaut miles runAvg speedWind from/ knotsBaromVisibWave heightAir tempDewpointWater temp
2014-Jul-28 13:13N 22°29' E 113°55'1319.1
2014-Jul-28 12:33N 22°20' E 113°44'1010.2
2014-Jul-28 11:33N 22°14' E 113°35'1918.1
2014-Jul-28 10:31N 22°24' E 113°53'1 1.1
2014-Jul-28 09:33N 22°23' E 113°52'1816.6
2014-Jul-28 08:28N 22°14' E 113°35'1 1.3
2014-Jul-28 07:33N 22°15' E 113°36'2221.8
2014-Jul-28 06:34N 22°29' E 113°55'1514.2
2014-Jul-28 05:28N 22°18' E 113°43'7 7.1
2014-Jul-28 04:33N 22°15' E 113°36'2221.8
2014-Jul-28 03:34N 22°29' E 113°55'1413.9
2014-Jul-28 02:33N 22°19' E 113°44'6 5.9
2014-Jul-28 01:33N 22°16' E 113°38'2019.7
2014-Jul-28 00:33N 22°29' E 113°55'0 0.0
2014-Jul-27 12:24N 22°29' E 113°55'0 0.0
2014-Jul-27 10:33N 22°29' E 113°55'0 0.0
2014-Jul-27 08:33N 22°29' E 113°55'0 0.0
2014-Jul-27 06:33N 22°29' E 113°55'1714.4
2014-Jul-27 05:23N 22°17' E 113°41'6 6.8
2014-Jul-27 04:34N 22°14' E 113°36'2222.3
2014-Jul-27 03:33N 22°28' E 113°55'1614.1
2014-Jul-27 02:27N 22°18' E 113°42'6 6.5
2014-Jul-27 01:33N 22°15' E 113°37'2121.2
2014-Jul-27 00:33N 22°29' E 113°55'0 0.1
2014-Jul-26 23:33N 22°29' E 113°55'0 0.0
2014-Jul-26 13:11N 22°29' E 113°55'1320.1
2014-Jul-26 12:33N 22°20' E 113°45'1010.4
2014-Jul-26 11:34N 22°14' E 113°35'2018.3
2014-Jul-26 10:29N 22°25' E 113°53'6 5.2
2014-Jul-26 09:17N 22°21' E 113°48'1418.7
2014-Jul-26 08:33N 22°14' E 113°35'1 0.8
2014-Jul-26 07:33N 22°14' E 113°36'2222.3
2014-Jul-26 06:33N 22°29' E 113°55'1514.6
2014-Jul-26 05:32N 22°18' E 113°43'8 8.2
2014-Jul-26 04:33N 22°15' E 113°35'0 0.0
2014-Jul-26 03:33N 22°15' E 113°35'6 6.2
2014-Jul-26 02:33N 22°18' E 113°41'1716.8
2014-Jul-26 01:33N 22°29' E 113°55'6 0.5
2014-Jul-25 13:32N 22°23' E 113°54'1 0.6
2014-Jul-25 12:33N 22°24' E 113°54'5 5.2
2014-Jul-25 11:33N 22°29' E 113°55'1614.2
2014-Jul-25 10:27N 22°18' E 113°42'7 8.1
2014-Jul-25 09:33N 22°14' E 113°35'1312.7
2014-Jul-25 08:33N 22°21' E 113°47'8 8.0
2014-Jul-25 07:33N 22°26' E 113°54'2020.4
2014-Jul-25 06:33N 22°14' E 113°35'1212.0
2014-Jul-25 05:34N 22°21' E 113°46'9 9.2
2014-Jul-25 04:33N 22°26' E 113°54'2121.0
2014-Jul-25 03:33N 22°14' E 113°35'1212.2
2014-Jul-25 02:33N 22°21' E 113°46'1110.9
2014-Jul-25 01:34N 22°29' E 113°55'0 0.0
2014-Jul-24 13:12N 22°29' E 113°55'1319.7
2014-Jul-24 12:33N 22°20' E 113°45'1010.2
2014-Jul-24 11:32N 22°14' E 113°35'2019.0
2014-Jul-24 10:28N 22°26' E 113°53'0 0.5
2014-Jul-24 09:34N 22°26' E 113°54'2117.7
2014-Jul-24 08:23N 22°14' E 113°35'2 2.7
2014-Jul-24 07:33N 22°16' E 113°37'2120.4
2014-Jul-24 06:33N 22°29' E 113°55'1514.7
2014-Jul-24 05:30N 22°18' E 113°42'5 5.3
2014-Jul-24 04:33N 22°16' E 113°38'2020.3
2014-Jul-24 03:33N 22°29' E 113°55'3 2.7
2014-Jul-24 02:33N 22°26' E 113°54'2120.6
2014-Jul-24 01:33N 22°14' E 113°35'1313.5
2014-Jul-24 00:34N 22°22' E 113°48'10 9.4
2014-Jul-23 23:32N 22°29' E 113°55'0 0.0
2014-Jul-23 13:12N 22°29' E 113°55'1320.0
2014-Jul-23 12:33N 22°20' E 113°45'1010.1
2014-Jul-23 11:33N 22°14' E 113°35'2018.3
2014-Jul-23 10:28N 22°26' E 113°53'1 0.7
2014-Jul-23 09:33N 22°26' E 113°54'2120.7
2014-Jul-23 08:33N 22°14' E 113°35'1 1.2
2014-Jul-23 07:34N 22°15' E 113°36'2221.8
2014-Jul-23 06:33N 22°29' E 113°55'1514.3
2014-Jul-23 05:32N 22°19' E 113°43'7 6.8
2014-Jul-23 04:33N 22°15' E 113°37'2121.1
2014-Jul-23 03:33N 22°29' E 113°55'3 3.3
2014-Jul-23 02:34N 22°26' E 113°53'2019.7
2014-Jul-23 01:33N 22°14' E 113°35'1313.5
2014-Jul-23 00:33N 22°21' E 113°48'10 9.8
2014-Jul-22 23:33N 22°29' E 113°55'0 0.0
2014-Jul-22 12:13N 22°29' E 113°55'0 0.0
2014-Jul-22 10:33N 22°29' E 113°55'7 5.2
2014-Jul-22 09:13N 22°22' E 113°55'710.5
2014-Jul-22 08:33N 22°29' E 113°55'6 4.3
2014-Jul-22 07:04N 22°22' E 113°55'612.7
2014-Jul-22 06:33N 22°29' E 113°55'1514.0
2014-Jul-22 05:29N 22°19' E 113°43'7 8.1
2014-Jul-22 04:33N 22°14' E 113°36'2322.5
2014-Jul-22 03:33N 22°29' E 113°55'4 3.7
2014-Jul-22 02:33N 22°25' E 113°53'2019.6
2014-Jul-22 01:33N 22°14' E 113°35'1313.5
2014-Jul-22 00:33N 22°22' E 113°48'10 9.6
2014-Jul-21 23:33N 22°29' E 113°55'2 0.2
2014-Jul-21 13:33N 22°27' E 113°54'2120.1
2014-Jul-21 12:30N 22°14' E 113°35'0 0.0
2014-Jul-21 11:33N 22°14' E 113°35'1918.5
2014-Jul-21 10:31N 22°25' E 113°53'1 1.0
2014-Jul-21 09:33N 22°26' E 113°54'2019.8
2014-Jul-21 08:32N 22°14' E 113°35'1 1.3
2014-Jul-21 07:34N 22°15' E 113°36'2221.7
2014-Jul-21 06:33N 22°29' E 113°55'1514.0
2014-Jul-21 05:30N 22°19' E 113°43'8 8.5
2014-Jul-21 04:34N 22°14' E 113°36'2322.7
2014-Jul-21 03:33N 22°29' E 113°55'0 0.0
2014-Jul-20 12:15N 22°29' E 113°55'0 0.0
2014-Jul-20 10:33N 22°29' E 113°55'0 0.0
2014-Jul-20 08:33N 22°29' E 113°55'0 0.1
2014-Jul-20 07:33N 22°29' E 113°55'0 0.0
2014-Jul-20 06:33N 22°29' E 113°55'0 0.0
2014-Jul-20 05:33N 22°29' E 113°55'0 0.0
2014-Jul-20 04:33N 22°29' E 113°55'0 0.0
2014-Jul-20 03:33N 22°29' E 113°55'0 0.0
2014-Jul-20 02:33N 22°29' E 113°55'0 0.0
2014-Jul-20 01:33N 22°29' E 113°55'2 0.1
2014-Jul-19 09:34N 22°27' E 113°54'2221.0
2014-Jul-19 08:32N 22°15' E 113°35'1313.6
2014-Jul-19 07:33N 22°21' E 113°48'8 8.0
2014-Jul-19 06:33N 22°27' E 113°54'2120.9
2014-Jul-19 05:33N 22°14' E 113°35'1313.1
2014-Jul-19 04:33N 22°22' E 113°47'  
Track history (hours):
 
Tides and Currents Weather Stations Pressure Air Temp Water Temp Dewpoint Dewpoint Depression Visibility Wind Speed Wind Dir Waves Ship Positions

Dong Fang Chun

Last reported at 2014-Jul-28 13:13 UTC. Time now 2014-Jul-28 16:30 UTC.
Position N 22°29' E 113°55'.

Length 23 m; draft 1.4 m.

Type: High speed craft. MMSI: 412461320.

Date/timePositionNaut miles runAvg speedWind from/ knotsBaromVisibWave heightAir tempDewpointWater temp
2014-Jul-28 13:13N 22°29' E 113°55'1319.1
2014-Jul-28 12:33N 22°20' E 113°44'1010.2
2014-Jul-28 11:33N 22°14' E 113°35'1918.1
2014-Jul-28 10:31N 22°24' E 113°53'1 1.1
2014-Jul-28 09:33N 22°23' E 113°52'1816.6
2014-Jul-28 08:28N 22°14' E 113°35'1 1.3
2014-Jul-28 07:33N 22°15' E 113°36'2221.8
2014-Jul-28 06:34N 22°29' E 113°55'1514.2
2014-Jul-28 05:28N 22°18' E 113°43'7 7.1
2014-Jul-28 04:33N 22°15' E 113°36'2221.8
2014-Jul-28 03:34N 22°29' E 113°55'1413.9
2014-Jul-28 02:33N 22°19' E 113°44'6 5.9
2014-Jul-28 01:33N 22°16' E 113°38'2019.7
2014-Jul-28 00:33N 22°29' E 113°55'0 0.0
2014-Jul-27 12:24N 22°29' E 113°55'0 0.0
2014-Jul-27 10:33N 22°29' E 113°55'0 0.0
2014-Jul-27 08:33N 22°29' E 113°55'0 0.0
2014-Jul-27 06:33N 22°29' E 113°55'1714.4
2014-Jul-27 05:23N 22°17' E 113°41'6 6.8
2014-Jul-27 04:34N 22°14' E 113°36'2222.3
2014-Jul-27 03:33N 22°28' E 113°55'1614.1
2014-Jul-27 02:27N 22°18' E 113°42'6 6.5
2014-Jul-27 01:33N 22°15' E 113°37'2121.2
2014-Jul-27 00:33N 22°29' E 113°55'0 0.1
2014-Jul-26 23:33N 22°29' E 113°55'0 0.0
2014-Jul-26 13:11N 22°29' E 113°55'1320.1
2014-Jul-26 12:33N 22°20' E 113°45'1010.4
2014-Jul-26 11:34N 22°14' E 113°35'2018.3
2014-Jul-26 10:29N 22°25' E 113°53'6 5.2
2014-Jul-26 09:17N 22°21' E 113°48'1418.7
2014-Jul-26 08:33N 22°14' E 113°35'1 0.8
2014-Jul-26 07:33N 22°14' E 113°36'2222.3
2014-Jul-26 06:33N 22°29' E 113°55'1514.6
2014-Jul-26 05:32N 22°18' E 113°43'8 8.2
2014-Jul-26 04:33N 22°15' E 113°35'0 0.0
2014-Jul-26 03:33N 22°15' E 113°35'6 6.2
2014-Jul-26 02:33N 22°18' E 113°41'1716.8
2014-Jul-26 01:33N 22°29' E 113°55'6 0.5
2014-Jul-25 13:32N 22°23' E 113°54'1 0.6
2014-Jul-25 12:33N 22°24' E 113°54'5 5.2
2014-Jul-25 11:33N 22°29' E 113°55'1614.2
2014-Jul-25 10:27N 22°18' E 113°42'7 8.1
2014-Jul-25 09:33N 22°14' E 113°35'1312.7
2014-Jul-25 08:33N 22°21' E 113°47'8 8.0
2014-Jul-25 07:33N 22°26' E 113°54'2020.4
2014-Jul-25 06:33N 22°14' E 113°35'1212.0
2014-Jul-25 05:34N 22°21' E 113°46'9 9.2
2014-Jul-25 04:33N 22°26' E 113°54'2121.0
2014-Jul-25 03:33N 22°14' E 113°35'1212.2
2014-Jul-25 02:33N 22°21' E 113°46'1110.9
2014-Jul-25 01:34N 22°29' E 113°55'0 0.0
2014-Jul-24 13:12N 22°29' E 113°55'1319.7
2014-Jul-24 12:33N 22°20' E 113°45'1010.2
2014-Jul-24 11:32N 22°14' E 113°35'2019.0
2014-Jul-24 10:28N 22°26' E 113°53'0 0.5
2014-Jul-24 09:34N 22°26' E 113°54'2117.7
2014-Jul-24 08:23N 22°14' E 113°35'2 2.7
2014-Jul-24 07:33N 22°16' E 113°37'2120.4
2014-Jul-24 06:33N 22°29' E 113°55'1514.7
2014-Jul-24 05:30N 22°18' E 113°42'5 5.3
2014-Jul-24 04:33N 22°16' E 113°38'2020.3
2014-Jul-24 03:33N 22°29' E 113°55'3 2.7
2014-Jul-24 02:33N 22°26' E 113°54'2120.6
2014-Jul-24 01:33N 22°14' E 113°35'1313.5
2014-Jul-24 00:34N 22°22' E 113°48'10 9.4
2014-Jul-23 23:32N 22°29' E 113°55'0 0.0
2014-Jul-23 13:12N 22°29' E 113°55'1320.0
2014-Jul-23 12:33N 22°20' E 113°45'1010.1
2014-Jul-23 11:33N 22°14' E 113°35'2018.3
2014-Jul-23 10:28N 22°26' E 113°53'1 0.7
2014-Jul-23 09:33N 22°26' E 113°54'2120.7
2014-Jul-23 08:33N 22°14' E 113°35'1 1.2
2014-Jul-23 07:34N 22°15' E 113°36'2221.8
2014-Jul-23 06:33N 22°29' E 113°55'1514.3
2014-Jul-23 05:32N 22°19' E 113°43'7 6.8
2014-Jul-23 04:33N 22°15' E 113°37'2121.1
2014-Jul-23 03:33N 22°29' E 113°55'3 3.3
2014-Jul-23 02:34N 22°26' E 113°53'2019.7
2014-Jul-23 01:33N 22°14' E 113°35'1313.5
2014-Jul-23 00:33N 22°21' E 113°48'10 9.8
2014-Jul-22 23:33N 22°29' E 113°55'0 0.0
2014-Jul-22 12:13N 22°29' E 113°55'0 0.0
2014-Jul-22 10:33N 22°29' E 113°55'7 5.2
2014-Jul-22 09:13N 22°22' E 113°55'710.5
2014-Jul-22 08:33N 22°29' E 113°55'6 4.3
2014-Jul-22 07:04N 22°22' E 113°55'612.7
2014-Jul-22 06:33N 22°29' E 113°55'1514.0
2014-Jul-22 05:29N 22°19' E 113°43'7 8.1
2014-Jul-22 04:33N 22°14' E 113°36'2322.5
2014-Jul-22 03:33N 22°29' E 113°55'4 3.7
2014-Jul-22 02:33N 22°25' E 113°53'2019.6
2014-Jul-22 01:33N 22°14' E 113°35'1313.5
2014-Jul-22 00:33N 22°22' E 113°48'10 9.6
2014-Jul-21 23:33N 22°29' E 113°55'2 0.2
2014-Jul-21 13:33N 22°27' E 113°54'2120.1
2014-Jul-21 12:30N 22°14' E 113°35'0 0.0
2014-Jul-21 11:33N 22°14' E 113°35'1918.5
2014-Jul-21 10:31N 22°25' E 113°53'1 1.0
2014-Jul-21 09:33N 22°26' E 113°54'2019.8
2014-Jul-21 08:32N 22°14' E 113°35'1 1.3
2014-Jul-21 07:34N 22°15' E 113°36'2221.7
2014-Jul-21 06:33N 22°29' E 113°55'1514.0
2014-Jul-21 05:30N 22°19' E 113°43'8 8.5
2014-Jul-21 04:34N 22°14' E 113°36'2322.7
2014-Jul-21 03:33N 22°29' E 113°55'0 0.0
2014-Jul-20 12:15N 22°29' E 113°55'0 0.0
2014-Jul-20 10:33N 22°29' E 113°55'0 0.0
2014-Jul-20 08:33N 22°29' E 113°55'0 0.1
2014-Jul-20 07:33N 22°29' E 113°55'0 0.0
2014-Jul-20 06:33N 22°29' E 113°55'0 0.0
2014-Jul-20 05:33N 22°29' E 113°55'0 0.0
2014-Jul-20 04:33N 22°29' E 113°55'0 0.0
2014-Jul-20 03:33N 22°29' E 113°55'0 0.0
2014-Jul-20 02:33N 22°29' E 113°55'0 0.0
2014-Jul-20 01:33N 22°29' E 113°55'2 0.1
2014-Jul-19 09:34N 22°27' E 113°54'2221.0
2014-Jul-19 08:32N 22°15' E 113°35'1313.6
2014-Jul-19 07:33N 22°21' E 113°48'8 8.0
2014-Jul-19 06:33N 22°27' E 113°54'2120.9
2014-Jul-19 05:33N 22°14' E 113°35'1313.1
2014-Jul-19 04:33N 22°22' E 113°47'  

Dump ship's entire track history